Temp
11 11 12 12 12 12 12 12 12 12 12 12 12 13 13 13 13 13 13 13 14 14 14 14 14 14 14 14 14 14 14 14 14 13 13 13 13 13 13 12 12 12 12 12 12 12 12 12 12 12 12 12 11 11 11 11 11 11 11 11 11 11 11 11 10 10 10 10 10
11 11 11 11 12 12 12 12 12 12 12 12 12 12 13 13 13 13 13 13 14 14 14 14 14 14 14 14 14 14 14 14 14 14 13 13 13 13 13 13 12 12 12 12 12 12 12 12 12 12 12 12 12 11 11 11 11 11 11 11 11 11 11 11 11 11 10 10 10
11 11 11 11 11 11 11 12 12 12 12 12 12 12 12 13 13 13 13 14 14 14 14 14 14 14 14 14 14 14 14 14 14 14 14 13 13 13 13 13 13 12 12 12 12 12 12 12 12 12 12 12 12 12 12 12 12 11 11 11 11 11 11 11 11 11 10 10 10
11 11 11 11 11 11 12 12 12 12 12 12 12 12 12 12 13 13 13 13 13 14 14 14 14 14 14 14 14 14 14 14 14 14 14 14 13 13 13 13 13 13 13 12 12 12 12 12 12 12 12 12 12 12 12 12 12 12 12 11 11 11 11 11 11 11 11 10 10
11 11 11 11 11 11 12 12 12 12 12 12 12 12 12 12 13 13 13 13 13 13 14 14 14 14 14 14 14 14 14 14 14 14 14 13 13 13 13 13 13 13 13 13 13 13 12 12 12 12 12 12 12 12 12 12 12 12 12 11 11 11 11 11 11 11 11 11 10
11 11 11 11 11 11 11 12 12 12 12 12 12 12 12 12 12 13 13 13 13 14 14 14 14 14 14 14 14 14 14 14 14 14 14 13 13 13 13 13 13 13 13 13 13 13 12 12 12 12 12 12 12 12 12 12 12 12 12 11 11 11 11 11 11 11 11 11 10
11 11 11 11 11 11 11 11 11 12 12 12 12 12 12 12 13 13 13 13 13 13 13 14 14 14 14 14 14 14 14 14 14 14 14 13 13 13 13 13 12 12 12 12 12 12 12 12 12 12 12 12 12 12 12 12 12 12 12 12 11 11 11 11 11 11 11 11 11
10 11 11 11 11 11 11 11 11 11 11 12 12 12 12 13 13 13 13 13 13 13 14 14 14 14 14 14 14 14 14 14 14 14 14 13 13 13 13 12 12 12 12 12 12 12 12 12 12 12 12 12 12 12 12 12 12 12 12 12 12 11 11 11 11 11 11 11 11
10 10 10 10 10 10 10 11 11 11 11 11 12 12 12 13 13 13 13 13 13 13 14 14 14 14 14 14 14 14 14 14 14 14 13 13 13 13 13 12 12 12 12 12 12 12 12 12 12 12 12 12 12 12 12 12 12 12 12 12 12 11 11 11 11 11 11 11 11
10 10 10 10 10 10 10 10 10 11 11 11 12 12 12 12 12 13 13 13 13 13 13 13 14 14 14 14 14 14 14 14 14 13 13 13 13 13 12 12 12 12 12 12 13 12 12 12 12 12 12 12 12 12 12 12 12 12 12 12 12 11 11 11 11 11 11 11 11
10 10 10 10 10 10 10 10 10 10 11 11 11 12 12 12 12 13 13 13 13 13 13 13 14 14 14 14 14 14 14 14 13 13 13 13 13 13 12 12 12 12 12 13 13 13 13 13 13 13 12 12 12 12 12 12 12 12 12 12 12 12 11 11 11 11 11 11 11
10 10 10 10 10 10 9 9 10 10 10 11 11 11 12 12 12 12 13 13 13 13 13 13 13 13 14 14 14 14 14 13 13 13 13 13 13 12 12 12 12 12 12 13 13 13 13 13 13 13 13 12 12 12 12 12 12 12 12 12 12 12 12 11 11 11 11 11 11
10 10 10 10 10 9 9 9 9 10 10 10 11 11 12 12 12 12 12 12 13 13 13 13 13 13 13 13 13 13 13 13 13 13 13 13 13 12 12 12 12 12 12 13 13 13 13 13 13 13 13 13 12 12 12 12 12 12 12 12 12 12 12 12 12 11 11 11 11
9 9 9 9 9 9 9 9 9 10 10 10 11 11 12 12 12 12 12 12 13 13 13 13 13 13 13 13 13 13 13 13 13 13 13 13 13 12 12 12 12 12 12 13 13 13 13 13 13 13 13 13 12 12 12 12 12 12 12 12 12 12 12 12 12 12 11 11 11
9 9 9 9 9 9 9 9 9 10 10 10 11 11 12 12 12 12 12 12 13 13 13 13 13 13 13 13 13 13 13 13 13 13 13 13 13 12 12 12 12 12 12 13 13 13 13 13 13 13 13 13 12 12 12 12 12 12 12 12 12 12 12 12 12 12 12 12 12
9 9 9 9 9 9 9 9 10 10 10 10 11 11 11 12 12 12 12 12 13 13 13 13 13 13 13 13 13 13 13 13 13 13 13 13 13 13 13 13 13 13 13 13 13 13 13 13 13 13 13 12 12 12 12 12 12 12 12 12 12 12 12 12 12 12 12 12 12
9 9 9 9 9 9 9 10 10 10 10 11 11 11 11 12 12 12 12 12 13 13 13 13 13 13 13 13 13 13 13 13 13 13 13 13 13 13 13 13 13 13 13 13 13 13 13 13 13 13 13 12 12 12 12 12 12 12 12 12 12 12 12 12 12 12 12 11 11
9 9 9 9 9 10 10 10 10 10 11 11 11 11 11 12 12 12 12 13 13 13 13 13 13 13 13 13 13 13 13 13 13 13 13 13 13 13 13 13 13 13 13 13 13 13 13 13 13 13 12 12 12 12 12 12 12 12 12 12 12 12 12 11 11 11 11 11 11
9 9 9 9 10 10 10 10 11 11 11 11 11 11 11 12 12 12 12 13 13 13 13 13 13 13 13 13 13 13 13 13 13 13 14 14 14 13 13 13 13 13 13 13 13 13 13 13 13 12 12 12 12 12 12 12 12 12 12 12 11 11 11 11 11 11 11 11 11
9 9 10 10 10 11 11 11 11 11 11 11 11 11 11 12 12 12 12 13 13 13 13 13 13 13 13 13 13 13 13 13 14 14 14 14 14 14 13 13 13 13 13 13 13 13 13 12 12 12 12 12 12 12 12 12 12 12 11 11 11 11 11 11 11 11 11 11 11
9 9 10 10 11 11 11 11 12 11 11 11 11 11 12 12 12 12 12 13 13 13 13 13 13 13 13 13 13 13 14 14 14 14 14 14 14 14 14 13 13 13 13 13 13 13 13 13 12 12 12 12 12 12 12 12 12 12 11 11 11 11 11 11 11 11 11 10 10
9 9 10 10 10 11 11 12 12 12 11 11 11 11 12 12 12 12 12 13 12 12 13 13 13 13 13 13 14 14 14 14 14 14 14 14 14 14 14 13 13 13 13 13 13 13 13 13 12 12 12 12 12 12 12 12 12 12 11 11 11 11 11 11 11 10 10 10 10
9 9 9 10 10 10 11 11 11 11 11 12 12 12 12 12 12 12 12 12 12 12 12 13 13 13 13 13 14 14 14 14 14 14 14 14 14 14 14 13 13 13 13 13 13 13 13 13 13 12 12 12 12 12 12 12 12 12 11 11 11 11 11 11 11 10 10 10 10
8 9 9 9 9 10 10 11 11 11 11 12 12 12 12 12 12 12 12 12 12 12 12 12 13 13 13 13 13 13 13 14 14 14 14 14 14 14 14 13 13 13 13 13 13 13 13 13 13 13 13 12 12 12 12 12 12 12 12 11 11 11 11 11 10 10 10 10 10
8 8 8 9 9 9 10 10 10 11 12 12 12 12 12 12 12 12 12 12 12 12 12 12 12 13 13 13 13 13 13 13 14 14 14 14 14 14 14 13 13 13 13 13 13 13 13 13 13 13 13 13 12 12 12 12 12 12 12 11 11 11 11 11 10 10 10 10 9
7 8 8 8 8 9 9 9 10 11 11 12 12 12 12 12 12 12 12 12 12 12 12 12 12 12 12 12 13 13 13 13 14 14 14 14 14 14 14 14 13 13 13 13 13 13 13 13 13 13 13 13 12 12 12 12 12 12 12 11 11 11 11 11 11 10 10 9 9
7 7 7 8 8 8 8 9 9 10 10 11 12 12 12 13 13 12 12 12 12 12 12 12 12 12 12 12 12 13 13 13 14 14 14 14 14 14 14 14 14 13 13 13 13 13 13 13 13 12 12 12 12 12 12 12 12 12 11 11 11 11 11 11 11 10 10 9 9
7 7 7 7 7 8 8 8 8 9 9 10 11 11 12 12 12 12 13 13 13 12 12 12 12 12 12 12 12 13 13 13 14 14 14 14 14 14 14 14 14 14 14 13 13 13 13 13 12 12 12 12 12 12 12 12 12 11 11 11 11 11 11 11 11 10 10 9 9
6 6 7 7 7 7 7 8 8 8 9 9 10 10 10 11 11 12 12 12 12 12 12 12 12 12 12 12 13 13 13 13 13 14 14 14 14 14 14 14 14 14 14 13 13 13 13 12 12 12 12 12 12 12 12 11 11 11 11 11 11 11 11 10 10 10 10 9 9
6 6 6 6 7 7 7 7 7 8 8 8 8 9 9 9 10 10 11 11 12 12 12 12 12 12 13 13 13 13 13 13 13 13 13 13 14 14 14 14 14 13 13 13 13 13 12 12 12 12 12 11 11 11 11 11 11 11 11 11 10 10 10 10 10 10 9 9 9
6 6 6 6 6 6 7 7 7 7 7 7 7 8 8 8 9 9 10 10 11 11 11 12 12 12 13 13 13 13 13 13 13 13 13 13 14 14 14 13 13 13 13 13 12 12 12 11 11 11 11 11 11 11 11 11 11 10 10 10 10 10 10 10 9 9 9 9 8
6 6 6 6 6 6 6 6 7 7 7 7 7 7 7 8 8 8 9 9 9 10 10 10 10 11 12 12 13 13 13 13 13 13 13 13 13 13 13 13 12 12 12 12 12 11 11 11 10 10 10 10 10 10 10 10 10 10 10 10 10 9 9 9 9 9 8 8 8
6 6 6 6 6 6 6 6 6 6 6 6 7 7 7 7 7 8 8 8 8 8 8 9 10 10 11 11 11 12 12 12 12 12 12 12 12 12 12 12 12 12 12 11 11 11 10 10 10 9 9 9 10 10 10 10 10 9 9 9 9 9 9 8 8 8 8 8 8
6 6 6 6 6 6 6 6 6 6 6 6 6 6 6 7 7 7 7 7 7 7 8 8 9 9 9 10 10 10 10 11 11 11 11 11 11 11 11 11 11 11 11 11 10 10 10 9 9 9 9 9 9 9 9 9 9 9 9 8 8 8 8 8 7 7 7 7 7
6 6 6 6 6 6 6 6 6 6 6 6 6 6 6 6 6 6 6 6 7 7 7 7 7 8 8 8 8 9 9 9 9 9 9 10 9 9 9 10 10 10 10 10 9 9 9 8 8 8 8 8 8 8 8 8 8 8 8 8 8 7 7 7 7 7 7 7 7
6 6 6 6 6 6 6 6 6 6 6 6 6 6 6 6 6 6 6 6 6 6 6 6 6 6 6 7 7 7 7 8 8 8 8 8 8 8 8 8 9 9 9 8 8 8 7 7 7 7 7 7 7 7 7 8 8 8 7 7 7 7 7 6 6 6 6 6 6
5 5 6 6 6 6 6 6 6 6 6 6 6 6 6 6 6 6 6 6 6 6 6 6 6 6 6 6 6 6 6 6 7 7 7 7 7 7 7 7 7 8 7 7 7 7 6 6 6 6 6 6 6 7 7 7 7 7 7 7 7 6 6 6 6 6 6 6 6
5 5 5 5 5 5 5 5 5 5 5 5 5 5 5 5 5 5 5 5 5 5 5 5 5 5 5 5 5 5 5 5 5 5 6 6 6 6 6 6 6 6 6 6 6 5 5 5 5 5 5 6 6 6 7 7 7 7 7 6 6 6 6 5 5 5 5 5 5
4 4 5 5 5 5 5 5 5 5 5 5 5 5 5 5 5 5 5 5 5 5 5 5 5 5 5 5 5 5 5 5 5 5 5 5 5 5 5 5 5 5 5 5 5 5 5 4 4 4 5 5 6 6 6 7 7 7 6 6 6 5 5 5 5 4 4 4 4
4 4 4 4 4 4 4 4 4 4 4 4 4 4 4 4 4 4 4 4 4 4 4 4 5 5 5 4 4 4 4 4 4 4 4 4 4 4 4 4 4 4 5 5 4 4 4 4 4 4 5 5 5 6 6 6 6 6 6 5 5 5 4 4 4 4 4 4 4
3 3 3 3 3 3 3 3 3 3 3 3 3 3 3 3 3 3 3 3 3 4 4 4 4 4 4 4 4 4 4 4 4 4 4 4 4 4 4 4 4 4 4 4 4 4 3 3 3 4 4 5 5 5 5 5 5 5 5 5 5 4 4 4 4 4 4 3 3
Height
1471 1473 1474 1476 1477 1479 1480 1481 1483 1485 1486 1487 1488 1489 1490 1492 1493 1495 1496 1497 1498 1499 1501 1502 1504 1506 1508 1510 1511 1512 1513 1514 1516 1516 1518 1519 1520 1521 1522 1523 1524 1525 1525 1526 1526 1527 1527 1528 1529 1529 1530 1531 1531 1532 1533 1533 1534 1534 1535 1535 1536 1536 1537 1537 1538 1538 1539 1539 1540
1469 1470 1471 1473 1475 1476 1478 1479 1481 1482 1484 1485 1486 1487 1488 1489 1491 1492 1493 1495 1496 1497 1499 1501 1502 1504 1506 1507 1508 1510 1511 1512 1513 1514 1515 1516 1517 1519 1520 1521 1521 1522 1523 1523 1524 1525 1525 1526 1526 1527 1528 1529 1529 1530 1531 1531 1532 1532 1533 1533 1534 1535 1535 1536 1536 1536 1537 1538 1538
1466 1467 1469 1471 1472 1473 1475 1476 1478 1479 1481 1482 1483 1485 1486 1487 1488 1490 1491 1492 1494 1496 1497 1498 1500 1501 1503 1505 1506 1507 1508 1509 1511 1511 1513 1514 1515 1516 1517 1518 1519 1520 1521 1521 1521 1522 1523 1523 1524 1525 1526 1526 1527 1528 1529 1529 1530 1530 1531 1531 1532 1533 1533 1534 1534 1535 1536 1536 1536
1464 1465 1466 1467 1469 1470 1471 1473 1474 1476 1478 1480 1481 1482 1484 1485 1486 1488 1489 1491 1492 1493 1494 1496 1497 1499 1501 1502 1503 1505 1506 1507 1508 1509 1510 1511 1512 1513 1514 1515 1516 1517 1518 1518 1519 1520 1520 1521 1522 1522 1523 1524 1525 1526 1526 1527 1528 1528 1529 1530 1530 1531 1531 1532 1532 1533 1534 1534 1535
1461 1462 1463 1465 1466 1467 1468 1470 1472 1474 1476 1477 1479 1480 1481 1483 1484 1486 1487 1488 1490 1491 1492 1494 1495 1497 1498 1500 1501 1502 1503 1504 1506 1506 1507 1509 1510 1511 1511 1512 1513 1514 1515 1516 1516 1517 1518 1519 1519 1520 1521 1522 1523 1523 1524 1525 1526 1526 1527 1528 1528 1529 1529 1530 1531 1531 1532 1532 1533
1459 1460 1461 1462 1464 1465 1466 1468 1470 1471 1473 1475 1476 1478 1479 1480 1481 1483 1484 1485 1487 1488 1490 1492 1493 1494 1496 1497 1498 1499 1501 1501 1503 1504 1505 1506 1507 1508 1509 1510 1511 1511 1512 1513 1514 1515 1516 1516 1517 1518 1519 1520 1521 1521 1522 1523 1524 1524 1525 1526 1526 1527 1527 1528 1529 1529 1530 1531 1531
1457 1458 1459 1460 1462 1463 1465 1466 1468 1469 1471 1472 1474 1475 1476 1477 1479 1480 1481 1483 1485 1486 1488 1489 1491 1492 1493 1494 1495 1496 1498 1499 1500 1501 1502 1503 1505 1506 1506 1507 1508 1509 1509 1510 1511 1512 1513 1514 1514 1515 1516 1517 1518 1519 1520 1521 1521 1522 1523 1523 1524 1525 1526 1526 1527 1527 1528 1529 1529
1456 1456 1457 1459 1460 1461 1462 1464 1466 1467 1468 1469 1471 1472 1473 1475 1476 1478 1479 1481 1482 1484 1485 1487 1488 1489 1491 1491 1493 1494 1495 1496 1497 1499 1500 1501 1502 1503 1504 1504 1505 1506 1507 1508 1509 1510 1511 1511 1512 1513 1514 1515 1516 1517 1518 1518 1519 1520 1521 1521 1522 1523 1524 1524 1525 1526 1526 1527 1527
1454 1455 1456 1457 1458 1459 1461 1462 1463 1464 1466 1466 1468 1469 1471 1473 1474 1476 1477 1479 1480 1481 1483 1484 1486 1487 1488 1489 1490 1491 1493 1494 1495 1496 1497 1498 1500 1500 1501 1502 1502 1503 1504 1505 1506 1507 1508 1509 1510 1511 1511 1512 1513 1514 1515 1516 1517 1518 1518 1519 1520 1521 1522 1522 1523 1524 1524 1525 1525
1451 1452 1454 1455 1456 1457 1459 1460 1461 1462 1463 1464 1466 1467 1469 1471 1472 1474 1475 1476 1478 1480 1481 1482 1483 1484 1486 1487 1488 1489 1490 1491 1493 1494 1495 1496 1497 1498 1499 1499 1500 1501 1501 1503 1504 1505 1506 1506 1507 1508 1509 1510 1511 1512 1513 1514 1515 1516 1516 1517 1518 1519 1520 1520 1521 1521 1522 1523 1523
1449 1451 1452 1453 1454 1456 1457 1458 1459 1460 1461 1462 1464 1466 1467 1469 1470 1471 1473 1475 1476 1477 1478 1479 1481 1482 1483 1484 1486 1487 1488 1489 1490 1491 1493 1493 1494 1495 1496 1497 1497 1498 1499 1500 1501 1502 1503 1504 1505 1506 1507 1508 1509 1510 1511 1512 1512 1513 1514 1515 1516 1517 1517 1518 1519 1520 1520 1521 1521
1448 1449 1450 1451 1452 1454 1455 1456 1457 1458 1459 1461 1462 1463 1465 1466 1468 1469 1471 1472 1473 1475 1476 1477 1478 1479 1481 1482 1483 1484 1486 1487 1488 1489 1490 1491 1492 1493 1494 1494 1495 1496 1497 1498 1499 1500 1501 1501 1502 1503 1505 1506 1506 1507 1508 1509 1510 1511 1512 1513 1514 1514 1515 1516 1516 1517 1518 1519 1519
1446 1447 1448 1450 1451 1452 1453 1454 1455 1456 1457 1458 1459 1461 1462 1464 1466 1467 1468 1470 1471 1472 1473 1475 1476 1477 1478 1479 1481 1482 1483 1484 1486 1486 1487 1488 1489 1490 1491 1492 1492 1493 1494 1495 1496 1497 1498 1499 1500 1501 1502 1503 1504 1505 1506 1507 1508 1509 1510 1511 1511 1512 1513 1514 1515 1515 1516 1516 1517
1444 1445 1446 1447 1449 1450 1451 1452 1453 1454 1455 1456 1457 1458 1460 1461 1463 1465 1466 1467 1468 1470 1471 1472 1473 1475 1476 1477 1478 1480 1481 1482 1483 1484 1485 1486 1487 1488 1488 1489 1490 1491 1492 1493 1494 1495 1496 1497 1498 1499 1500 1501 1502 1503 1504 1505 1506 1506 1507 1508 1509 1510 1511 1511 1512 1513 1514 1514 1515
1442 1442 1444 1445 1446 1447 1449 1450 1451 1451 1452 1454 1455 1456 1458 1459 1461 1462 1463 1465 1466 1467 1469 1470 1471 1472 1473 1475 1476 1477 1478 1479 1480 1481 1482 1483 1484 1485 1486 1487 1488 1489 1489 1490 1491 1492 1493 1495 1496 1497 1498 1499 1500 1501 1502 1503 1504 1505 1505 1506 1507 1508 1509 1510 1510 1511 1511 1512 1513
1439 1440 1441 1442 1443 1445 1446 1447 1448 1449 1450 1451 1453 1454 1455 1456 1458 1459 1461 1462 1464 1465 1466 1467 1468 1470 1471 1472 1473 1475 1476 1477 1478 1479 1480 1481 1481 1482 1483 1484 1485 1486 1487 1488 1489 1490 1491 1493 1494 1495 1496 1497 1498 1499 1500 1501 1501 1502 1503 1504 1505 1506 1506 1507 1508 1509 1509 1510 1511
1437 1438 1439 1440 1441 1441 1443 1444 1445 1446 1447 1449 1450 1451 1453 1454 1455 1457 1458 1459 1461 1462 1463 1465 1466 1467 1468 1470 1471 1472 1473 1474 1475 1476 1477 1478 1479 1480 1481 1482 1483 1484 1485 1486 1487 1488 1489 1491 1492 1493 1494 1495 1496 1497 1498 1498 1499 1500 1501 1502 1503 1504 1504 1505 1506 1506 1507 1508 1508
1435 1435 1436 1437 1438 1439 1440 1441 1442 1444 1445 1446 1448 1449 1450 1451 1453 1454 1455 1457 1458 1459 1461 1462 1463 1465 1466 1467 1468 1469 1470 1471 1472 1473 1474 1475 1476 1478 1479 1480 1481 1482 1483 1484 1485 1486 1487 1488 1490 1491 1492 1493 1494 1495 1496 1496 1497 1498 1499 1500 1501 1501 1502 1503 1503 1504 1505 1506 1506
1432 1433 1434 1434 1435 1436 1437 1439 1440 1441 1443 1444 1446 1447 1448 1449 1450 1451 1453 1454 1456 1457 1458 1460 1461 1462 1463 1464 1465 1466 1467 1468 1470 1471 1472 1473 1475 1476 1477 1478 1479 1480 1481 1482 1483 1484 1485 1486 1487 1488 1489 1491 1491 1492 1493 1494 1495 1496 1497 1498 1499 1499 1500 1501 1501 1502 1502 1503 1504
1430 1431 1431 1431 1432 1433 1435 1436 1437 1439 1441 1442 1443 1445 1446 1447 1448 1449 1451 1452 1453 1455 1456 1457 1458 1459 1461 1461 1463 1464 1465 1466 1467 1469 1470 1471 1472 1474 1475 1476 1477 1478 1478 1479 1481 1481 1483 1484 1485 1486 1487 1488 1489 1490 1491 1492 1493 1494 1495 1496 1496 1497 1498 1498 1499 1500 1500 1501 1501
1428 1428 1429 1429 1430 1431 1432 1434 1435 1437 1438 1440 1441 1442 1443 1445 1446 1447 1448 1449 1451 1452 1453 1455 1456 1457 1458 1459 1460 1461 1462 1464 1465 1466 1468 1469 1470 1471 1472 1474 1475 1475 1476 1477 1478 1479 1480 1481 1482 1483 1485 1486 1486 1488 1489 1490 1491 1491 1492 1493 1494 1495 1496 1496 1497 1497 1498 1498 1499
1426 1427 1427 1428 1429 1429 1430 1432 1433 1435 1436 1437 1438 1440 1441 1442 1443 1445 1446 1447 1449 1450 1451 1452 1453 1454 1455 1456 1457 1459 1460 1461 1463 1464 1466 1467 1468 1469 1470 1471 1472 1473 1474 1474 1475 1476 1478 1479 1480 1481 1482 1483 1484 1485 1486 1487 1488 1489 1490 1491 1492 1492 1493 1494 1494 1495 1496 1496 1496
1426 1426 1427 1427 1428 1428 1429 1430 1431 1432 1433 1435 1436 1437 1438 1440 1441 1442 1444 1445 1446 1447 1448 1449 1451 1451 1452 1454 1455 1456 1458 1459 1460 1462 1463 1464 1466 1467 1468 1469 1469 1470 1471 1471 1473 1474 1475 1476 1477 1478 1479 1480 1481 1482 1483 1484 1485 1486 1487 1488 1489 1490 1491 1491 1492 1492 1493 1493 1494
1425 1426 1426 1426 1427 1427 1428 1428 1429 1430 1431 1432 1433 1434 1436 1437 1438 1440 1441 1442 1443 1444 1446 1446 1448 1449 1450 1451 1453 1454 1455 1456 1457 1459 1460 1461 1463 1464 1465 1466 1466 1467 1468 1469 1470 1471 1472 1473 1474 1475 1476 1477 1478 1479 1480 1481 1482 1483 1484 1486 1486 1487 1488 1489 1489 1490 1491 1491 1491
1425 1426 1426 1426 1426 1426 1426 1427 1427 1427 1428 1429 1431 1432 1433 1434 1436 1437 1438 1439 1441 1441 1443 1444 1445 1446 1448 1449 1450 1451 1452 1453 1455 1456 1457 1458 1460 1461 1462 1462 1463 1464 1465 1466 1467 1468 1469 1470 1471 1472 1473 1474 1475 1476 1477 1478 1479 1480 1481 1482 1483 1484 1485 1486 1486 1487 1488 1488 1489
1424 1424 1425 1425 1425 1425 1425 1425 1425 1426 1426 1427 1428 1429 1431 1432 1433 1434 1436 1436 1438 1439 1440 1441 1442 1444 1445 1446 1447 1448 1449 1450 1451 1453 1454 1455 1456 1457 1458 1459 1460 1461 1462 1463 1464 1465 1466 1467 1468 1469 1470 1471 1472 1473 1474 1475 1476 1477 1478 1479 1480 1481 1482 1483 1484 1484 1485 1486 1487
1422 1422 1423 1423 1424 1424 1424 1423 1424 1424 1425 1426 1426 1427 1428 1429 1431 1431 1432 1434 1435 1436 1437 1439 1440 1441 1442 1443 1444 1445 1446 1447 1448 1450 1451 1452 1453 1454 1455 1456 1457 1457 1458 1460 1461 1462 1463 1464 1465 1466 1467 1468 1469 1470 1471 1472 1473 1474 1475 1476 1477 1478 1479 1480 1481 1482 1482 1483 1485
1420 1420 1421 1422 1422 1422 1422 1422 1423 1423 1423 1424 1424 1425 1426 1427 1428 1429 1430 1431 1432 1433 1435 1436 1436 1438 1439 1440 1441 1441 1442 1444 1445 1446 1447 1448 1450 1451 1451 1452 1453 1454 1455 1456 1457 1459 1460 1461 1461 1462 1464 1465 1466 1466 1468 1469 1470 1471 1472 1473 1474 1475 1476 1477 1478 1479 1480 1481 1482
1417 1418 1419 1420 1420 1420 1421 1421 1421 1421 1422 1422 1423 1424 1425 1425 1426 1426 1427 1428 1429 1430 1431 1432 1433 1435 1435 1436 1437 1438 1440 1441 1442 1443 1444 1445 1446 1447 1448 1449 1450 1451 1452 1453 1454 1456 1456 1457 1458 1459 1460 1461 1462 1463 1465 1466 1467 1468 1469 1470 1471 1472 1473 1474 1475 1476 1477 1478 1480
1415 1416 1416 1417 1417 1418 1419 1419 1419 1420 1421 1421 1422 1422 1423 1423 1423 1424 1425 1425 1426 1427 1428 1429 1430 1431 1431 1432 1434 1435 1436 1437 1438 1440 1441 1441 1442 1443 1445 1446 1446 1448 1449 1450 1451 1452 1453 1454 1455 1456 1457 1458 1459 1460 1461 1462 1464 1465 1466 1467 1468 1469 1470 1471 1472 1473 1475 1476 1477
1413 1414 1414 1415 1415 1416 1416 1417 1418 1418 1419 1420 1420 1421 1421 1421 1421 1422 1422 1423 1423 1424 1426 1426 1427 1428 1428 1430 1431 1432 1433 1434 1435 1436 1437 1438 1439 1440 1441 1442 1443 1444 1446 1447 1448 1449 1451 1452 1453 1454 1454 1455 1456 1457 1458 1459 1461 1462 1463 1464 1465 1466 1467 1468 1469 1471 1472 1473 1475
1411 1411 1412 1412 1413 1413 1414 1415 1416 1416 1417 1418 1418 1418 1419 1419 1419 1420 1421 1421 1422 1423 1424 1424 1424 1425 1426 1427 1428 1429 1430 1431 1432 1432 1433 1434 1436 1437 1438 1439 1440 1441 1442 1444 1445 1446 1448 1449 1450 1451 1452 1452 1453 1454 1455 1456 1458 1459 1460 1461 1462 1463 1464 1465 1467 1468 1470 1471 1472
1408 1409 1409 1410 1410 1411 1411 1412 1413 1414 1415 1415 1416 1416 1416 1417 1418 1418 1419 1420 1421 1421 1421 1421 1422 1422 1423 1424 1425 1426 1427 1428 1429 1430 1431 1431 1433 1434 1435 1436 1437 1438 1440 1441 1442 1443 1445 1446 1447 1448 1449 1450 1450 1451 1453 1454 1456 1456 1458 1459 1460 1461 1462 1463 1465 1466 1468 1469 1470
1406 1406 1407 1407 1408 1408 1409 1410 1411 1411 1412 1413 1413 1414 1415 1415 1416 1417 1417 1418 1419 1419 1419 1420 1420 1421 1421 1422 1423 1424 1424 1425 1426 1427 1428 1429 1430 1431 1432 1433 1434 1435 1436 1438 1439 1440 1442 1443 1444 1445 1446 1446 1448 1449 1451 1452 1453 1454 1455 1456 1457 1459 1460 1461 1462 1464 1466 1467 1468
1405 1405 1405 1405 1406 1406 1406 1407 1408 1409 1410 1410 1411 1412 1413 1413 1414 1415 1416 1416 1417 1417 1418 1418 1419 1420 1420 1421 1421 1422 1423 1423 1424 1425 1426 1426 1427 1428 1429 1430 1431 1432 1433 1435 1436 1437 1439 1440 1441 1442 1443 1444 1445 1446 1448 1450 1451 1452 1453 1454 1455 1456 1458 1459 1460 1461 1463 1464 1466
1402 1403 1403 1403 1404 1404 1405 1405 1406 1406 1407 1408 1409 1410 1410 1411 1412 1413 1414 1415 1416 1416 1416 1417 1417 1418 1418 1419 1420 1420 1421 1421 1422 1423 1423 1424 1425 1426 1426 1427 1428 1429 1431 1432 1433 1434 1436 1437 1438 1439 1440 1441 1443 1444 1446 1447 1449 1450 1451 1452 1453 1454 1455 1456 1458 1459 1460 1461 1463
1401 1401 1401 1401 1402 1402 1402 1403 1403 1404 1405 1406 1406 1407 1408 1409 1410 1411 1412 1413 1414 1414 1414 1415 1415 1416 1416 1417 1417 1418 1418 1419 1420 1421 1421 1422 1422 1423 1424 1425 1426 1426 1428 1429 1430 1432 1433 1434 1436 1437 1438 1439 1440 1442 1444 1445 1446 1448 1449 1450 1451 1452 1453 1454 1455 1456 1458 1459 1460
1399 1400 1400 1400 1400 1401 1401 1401 1402 1402 1403 1403 1404 1405 1406 1407 1408 1409 1410 1411 1411 1412 1412 1413 1414 1414 1415 1415 1416 1416 1416 1417 1418 1419 1419 1420 1421 1421 1422 1422 1423 1425 1426 1427 1428 1430 1431 1433 1434 1435 1435 1436 1438 1440 1441 1443 1444 1446 1446 1448 1449 1450 1451 1452 1453 1454 1455 1456 1458
1398 1398 1398 1399 1399 1399 1399 1400 1400 1400 1401 1401 1402 1403 1404 1405 1406 1407 1408 1408 1409 1410 1411 1411 1412 1412 1413 1413 1414 1414 1415 1416 1416 1417 1418 1418 1419 1419 1420 1421 1422 1423 1425 1426 1427 1429 1430 1431 1432 1433 1433 1434 1436 1438 1439 1441 1442 1443 1444 1445 1446 1447 1448 1449 1451 1451 1453 1454 1456
1397 1397 1397 1397 1397 1398 1398 1398 1398 1398 1399 1399 1400 1401 1401 1402 1403 1404 1405 1406 1407 1408 1409 1410 1410 1411 1411 1411 1412 1413 1413 1414 1415 1416 1416 1417 1417 1418 1419 1420 1421 1423 1424 1425 1427 1428 1429 1430 1431 1431 1431 1432 1434 1436 1437 1439 1440 1441 1442 1443 1444 1445 1446 1447 1448 1449 1451 1452 1454
1396 1396 1396 1396 1396 1396 1396 1396 1396 1396 1397 1397 1398 1398 1399 1400 1401 1402 1403 1404 1405 1406 1406 1407 1408 1408 1409 1409 1410 1411 1412 1412 1413 1414 1415 1416 1416 1417 1418 1420 1421 1422 1423 1424 1426 1427 1427 1428 1428 1429 1430 1431 1432 1434 1435 1436 1437 1438 1439 1441 1442 1443 1444 1445 1446 1447 1449 1450 1452
Wind_Speed
52 52 52 52 52 52 52 52 51 51 51 50 50 50 49 48 46 46 45 44 43 42 41 40 38 37 36 35 35 35 35 35 35 35 35 35 35 35 35 35 35 36 36 36 36 36 36 35 35 34 33 32 32 31 30 28 27 26 26 25 24 23 22 22 21 21 21 20 20
52 52 53 52 52 52 52 51 51 51 51 51 51 50 50 49 48 47 46 45 44 43 41 40 38 37 36 35 35 35 35 35 35 35 35 36 35 35 35 36 36 36 36 37 37 37 37 36 36 35 34 33 31 30 29 28 27 26 25 24 23 22 22 21 21 20 20 20 20
52 52 52 52 52 52 52 51 51 51 51 51 51 50 50 49 49 48 47 46 44 43 41 40 39 38 37 36 35 35 35 35 35 35 35 35 35 35 35 35 35 35 36 36 36 37 36 36 35 35 34 32 31 30 29 27 26 25 25 24 23 22 22 21 20 20 20 20 20
51 52 52 52 52 52 52 52 52 52 52 51 51 50 50 49 49 48 47 46 45 44 43 41 40 39 37 36 36 35 35 35 35 35 35 34 34 33 33 33 33 33 33 34 35 35 35 35 34 34 33 32 30 29 28 26 25 25 24 23 22 22 21 21 20 20 20 20 20
51 51 52 52 52 53 53 53 52 52 52 51 50 50 50 49 49 48 47 47 46 45 43 42 41 39 38 37 37 36 36 35 35 35 34 33 33 32 31 31 30 30 31 32 32 33 33 33 33 33 32 31 29 28 27 25 25 24 24 23 23 22 21 21 20 20 20 20 20
50 51 52 52 52 52 52 52 52 52 51 51 50 50 50 50 49 49 48 48 47 45 44 43 41 40 40 39 38 37 37 36 35 35 34 33 31 30 30 29 29 29 29 30 31 31 32 32 32 32 31 30 29 27 26 25 25 24 24 23 23 22 22 21 21 20 20 20 20
50 50 51 51 52 52 52 52 52 51 51 51 50 50 50 50 50 49 49 48 46 45 44 43 43 42 41 40 39 38 38 37 36 34 33 32 31 30 29 28 28 28 29 29 30 31 31 31 31 31 30 29 28 27 26 25 25 25 24 24 23 22 22 21 21 21 20 20 20
49 49 50 50 51 51 52 52 52 51 51 51 51 50 50 50 49 49 48 47 47 46 45 44 43 42 41 41 40 39 38 37 35 34 33 31 30 29 28 28 28 28 29 29 30 30 31 31 31 30 30 29 28 26 26 25 25 25 24 24 23 23 22 22 21 21 21 21 20
48 48 49 49 50 51 51 51 52 52 51 51 51 50 50 49 49 48 48 47 46 46 45 44 43 43 42 41 40 39 38 37 35 34 32 31 30 29 28 28 28 29 29 30 30 30 30 30 30 30 29 28 27 26 26 25 25 25 24 24 24 23 23 22 22 22 21 21 21
47 48 48 49 49 50 50 50 51 51 51 51 51 50 49 49 48 48 47 46 46 45 45 44 43 43 42 41 40 39 38 36 35 33 32 31 30 29 29 29 29 29 30 30 30 30 30 30 30 29 29 28 27 26 26 26 26 25 25 25 24 24 23 23 23 22 22 22 22
47 47 47 48 48 49 49 50 50 50 50 50 50 50 49 48 48 47 46 45 45 45 44 44 43 43 42 41 40 39 38 36 34 33 32 30 29 29 29 29 29 29 30 30 30 30 30 30 30 29 28 28 27 27 26 26 26 26 26 25 25 25 24 24 23 23 23 23 23
46 46 46 47 47 48 48 49 49 49 50 50 49 49 49 48 47 46 46 45 45 45 44 43 43 43 42 41 40 38 37 36 34 33 31 30 29 29 29 29 29 30 30 30 30 30 30 30 29 29 28 28 28 27 27 27 27 27 27 26 26 26 25 25 24 24 24 24 24
44 45 45 45 46 46 47 48 48 49 49 49 49 49 48 48 47 46 45 45 45 44 43 43 43 42 41 40 39 38 37 35 34 32 31 30 29 29 29 29 29 30 30 30 30 30 30 30 29 29 29 28 28 28 28 28 28 28 28 28 27 27 26 26 25 25 25 25 25
43 44 44 44 45 45 46 47 48 48 48 48 48 48 48 47 46 46 45 45 44 44 43 43 42 42 41 40 38 37 36 35 33 32 31 30 29 29 29 29 30 30 31 31 31 31 31 30 30 29 29 29 29 29 29 29 29 29 29 28 28 27 27 26 26 26 26 26 26
42 43 43 43 44 45 45 46 47 48 48 48 48 47 47 47 46 45 45 45 44 43 43 42 42 41 40 39 38 36 35 34 33 31 30 30 29 29 30 30 30 31 31 31 32 31 31 31 30 30 29 29 29 29 29 30 30 30 29 29 29 28 28 27 27 27 27 27 27
42 42 42 43 43 44 45 46 46 47 47 47 47 47 47 46 46 45 45 45 44 43 43 42 41 41 39 38 37 36 35 34 32 31 30 30 30 30 30 30 31 31 32 32 32 32 31 31 31 30 30 30 30 30 30 30 31 31 30 30 29 29 28 28 28 28 28 28 28
41 42 42 43 43 44 44 45 45 46 46 46 46 46 46 46 46 46 45 45 44 44 43 42 41 40 39 38 37 36 35 33 32 31 30 30 30 30 30 31 31 32 32 32 32 32 32 31 31 31 31 30 30 30 31 31 31 31 31 30 30 30 29 29 29 29 29 29 29
41 42 42 43 43 43 44 44 45 45 45 45 46 46 46 46 46 46 45 45 44 44 43 42 41 40 39 38 37 36 35 33 32 31 30 30 30 30 31 31 31 32 32 32 32 32 32 31 31 31 31 31 31 31 31 31 32 32 32 31 31 31 31 31 31 31 30 30 30
41 42 42 43 43 43 43 43 44 44 44 44 45 45 45 45 45 45 45 45 44 44 43 42 41 40 39 38 37 36 34 33 32 31 31 31 31 31 31 31 31 32 32 32 32 32 31 31 31 31 31 31 31 31 32 32 32 33 32 32 32 32 32 32 32 32 32 31 31
42 42 43 43 43 43 42 42 42 43 43 43 44 44 45 45 45 45 45 44 44 43 43 42 41 40 39 38 37 36 34 33 32 31 31 31 31 32 32 32 32 32 32 32 32 32 31 31 32 32 32 31 32 32 32 32 33 33 33 33 33 33 33 33 33 33 33 32 32
42 42 43 43 42 42 42 41 41 41 42 43 43 44 44 44 44 44 44 44 43 43 42 42 41 40 39 38 37 36 34 33 32 32 32 32 33 33 32 32 32 33 32 32 32 32 32 32 32 32 32 32 32 32 32 33 33 34 34 34 34 34 34 34 34 34 34 33 33
43 43 42 42 42 42 41 41 40 41 41 42 43 43 43 44 44 44 44 43 43 43 42 42 41 40 39 38 37 36 34 34 33 33 33 34 34 34 33 33 33 33 33 33 33 32 32 32 31 31 32 32 32 32 33 33 34 34 34 35 35 35 35 35 35 35 34 34 34
42 42 42 42 42 42 42 41 41 41 41 42 42 42 43 43 43 43 43 43 43 43 42 42 41 40 39 38 37 36 35 35 35 35 35 35 35 35 35 35 35 35 35 34 34 33 33 32 32 32 32 32 32 32 33 33 34 35 35 35 35 35 35 35 35 35 35 35 35
41 42 42 42 42 42 42 42 42 42 41 41 42 42 42 43 43 43 43 43 43 43 42 42 41 40 39 38 38 37 36 36 36 36 37 37 37 37 37 37 37 36 36 35 35 34 34 33 33 33 32 32 32 33 33 34 34 35 36 36 36 36 36 36 36 36 36 36 36
40 41 41 42 42 43 43 43 43 43 42 42 41 41 42 42 42 42 43 43 43 43 42 41 41 40 39 39 38 38 38 38 38 38 38 38 39 39 39 39 39 38 38 37 37 36 35 35 34 34 33 33 33 33 34 34 35 36 36 37 37 37 37 37 37 37 37 37 36
39 39 40 41 42 42 43 43 44 43 43 42 41 41 41 41 42 42 42 42 42 42 42 41 41 40 39 39 39 39 39 39 39 39 40 40 40 40 40 41 41 40 40 39 39 38 37 37 36 35 35 35 34 35 35 35 36 36 37 37 38 38 38 38 38 38 38 37 36
37 38 39 40 41 42 43 43 44 44 43 43 42 42 41 41 41 41 42 42 42 42 41 41 41 40 40 40 40 40 40 40 40 40 41 41 41 41 42 42 42 42 42 41 41 40 39 39 38 38 37 37 36 36 36 37 37 37 38 38 39 39 39 39 39 39 38 37 36
35 36 37 38 40 41 42 43 43 44 44 43 43 42 41 41 41 41 41 41 41 41 41 41 41 40 40 40 41 41 41 41 41 41 42 42 42 42 43 43 44 44 44 43 43 42 42 41 41 40 40 39 39 38 38 38 38 38 39 39 40 40 40 41 40 40 39 38 36
33 34 35 36 38 39 41 42 42 43 43 43 43 43 42 42 42 42 41 41 41 41 41 41 41 41 41 42 42 42 42 42 42 42 42 43 43 43 44 44 45 45 45 45 45 44 44 44 43 43 42 41 41 40 40 40 40 40 40 41 41 41 41 41 41 41 40 38 36
31 32 33 34 36 37 39 40 41 42 42 42 43 43 43 43 43 42 42 42 42 41 41 40 41 41 42 42 42 42 43 43 43 43 44 44 44 45 45 45 45 46 46 46 46 46 46 45 45 44 44 43 43 42 42 42 41 41 41 42 42 42 42 42 42 41 40 38 36
27 30 31 33 34 35 37 38 39 40 41 41 42 42 43 43 43 43 43 43 42 41 41 41 41 41 41 41 42 42 43 43 44 44 45 45 45 46 46 46 46 46 46 47 47 47 46 46 46 45 45 45 44 44 43 43 42 42 42 42 43 43 43 43 43 42 40 38 36
23 26 28 31 32 33 34 35 36 37 39 40 41 41 42 43 43 43 43 42 42 42 41 42 42 42 42 42 42 43 43 44 44 45 46 46 46 46 46 46 46 46 47 47 47 46 46 46 45 46 46 46 46 45 45 44 43 43 43 43 43 43 43 43 42 41 39 37 35
19 22 25 27 29 31 32 33 34 35 36 38 39 40 41 42 42 42 42 42 42 42 42 43 43 43 43 43 43 43 44 44 45 45 46 46 46 46 46 46 46 46 46 46 46 46 45 45 45 46 46 47 47 46 45 44 43 43 43 43 43 43 42 42 40 39 37 36 34
16 19 21 24 26 28 29 30 31 33 34 36 37 38 39 40 40 40 41 41 41 41 42 42 42 43 43 43 43 43 44 44 44 44 45 45 45 45 45 45 45 46 46 46 46 45 45 45 45 45 46 47 46 46 45 44 43 42 42 42 42 41 40 39 38 37 36 34 33
14 16 18 20 22 24 26 28 29 31 32 34 35 36 37 38 39 39 39 40 40 40 41 41 41 41 41 41 42 42 43 43 43 44 44 44 44 45 45 45 45 45 46 45 45 45 44 44 44 45 45 46 46 45 44 42 42 41 40 40 39 39 38 37 36 35 34 34 33
13 14 15 16 18 20 23 25 27 29 30 32 33 34 35 36 37 37 38 38 38 39 39 40 40 40 40 40 41 41 42 42 43 43 43 44 44 44 44 45 45 45 45 45 44 44 43 43 43 43 44 44 44 43 42 41 39 39 38 37 37 37 36 36 35 34 34 33 32
13 13 13 14 16 17 19 22 24 26 28 29 31 32 34 35 35 36 36 37 37 38 39 39 39 39 39 40 40 41 41 41 41 42 42 43 43 43 44 44 45 45 44 44 43 42 42 41 41 41 42 42 42 41 40 38 37 36 35 35 35 34 34 34 33 33 32 32 31
14 14 14 14 15 16 17 19 21 23 25 27 29 30 31 32 33 34 35 36 36 37 38 38 39 39 39 39 39 39 40 40 40 40 41 41 42 43 43 43 43 43 43 42 41 40 39 39 39 39 40 40 39 39 37 36 35 34 34 33 33 33 33 32 32 32 31 30 29
14 14 14 14 14 15 16 17 19 21 23 25 27 28 29 30 31 32 33 34 35 36 37 37 38 38 38 38 38 38 38 38 38 38 39 39 40 41 41 41 41 41 41 40 39 38 37 36 36 37 37 38 37 36 35 34 33 32 32 32 32 32 32 31 31 30 29 28 27
14 14 14 14 14 15 15 17 18 20 21 23 25 26 27 28 29 30 31 32 33 34 35 36 37 37 37 38 38 38 38 38 37 37 37 38 38 39 39 39 39 38 38 37 36 35 34 34 34 35 35 35 34 33 32 31 31 31 31 31 31 31 31 30 29 28 27 26 25
13 13 13 13 13 14 15 16 18 19 20 22 23 24 25 26 27 28 29 30 31 32 33 34 35 36 37 37 38 38 38 37 37 37 37 38 38 38 38 37 36 36 35 34 34 33 32 33 33 34 34 33 31 30 30 29 29 30 30 30 31 30 30 29 28 27 26 25 24
Wind_Direction
229 229 229 230 230 230 230 231 231 231 231 231 231 232 234 234 234 235 237 238 238 239 239 239 239 239 239 238 238 238 238 238 237 237 237 238 238 238 239 240 241 243 245 247 249 251 253 255 256 258 259 260 260 261 261 261 261 260 260 259 258 257 257 257 256 256 256 256 257
228 229 230 230 230 230 230 231 231 231 231 231 232 233 234 235 235 236 237 239 239 240 240 241 241 241 240 240 240 240 240 240 240 240 240 240 240 241 241 242 242 243 245 246 248 250 251 253 254 255 256 257 258 258 258 258 257 257 256 255 254 254 253 253 253 253 253 254 254
228 229 229 229 229 229 229 230 230 231 231 231 232 233 234 235 236 237 238 239 240 241 241 242 242 242 242 242 241 241 242 242 242 243 243 244 244 244 244 244 245 245 245 246 247 248 249 251 252 253 254 254 255 255 255 254 254 253 252 252 251 250 250 250 250 250 250 251 251
228 228 228 229 229 229 230 231 231 231 232 232 232 232 233 235 236 237 238 239 240 241 242 242 243 243 243 243 243 243 244 244 245 245 246 246 247 247 247 247 246 245 245 245 245 245 246 248 249 250 251 252 252 252 252 251 250 250 249 248 248 247 247 247 247 247 248 248 248
228 228 229 229 230 231 232 232 232 232 232 232 231 232 233 234 236 237 238 239 240 241 242 243 243 244 245 245 245 245 246 246 247 247 248 249 249 249 248 247 246 245 243 242 242 243 243 244 246 247 248 249 249 249 249 248 247 247 246 245 244 244 244 244 244 244 245 246 246
229 229 230 230 231 231 232 232 232 232 232 232 232 232 233 234 235 236 237 238 240 241 242 243 244 245 245 246 247 247 248 248 249 249 250 250 250 249 248 247 245 243 241 240 240 240 241 242 243 244 245 246 246 246 245 245 244 244 243 242 241 241 241 241 242 242 243 243 244
230 230 230 230 230 230 231 231 231 232 232 232 232 232 233 235 236 236 237 239 240 240 241 242 243 244 245 246 247 248 249 249 250 250 251 250 250 249 247 246 244 242 240 239 238 238 239 240 241 242 243 243 243 243 242 242 241 240 239 238 238 238 238 239 240 240 241 241 242
231 231 231 230 230 230 230 230 230 230 231 231 232 233 234 236 236 237 238 239 240 240 241 242 243 244 245 247 248 249 249 250 251 251 251 250 249 248 247 245 243 241 239 238 237 237 238 238 239 240 241 241 241 241 241 240 239 237 236 236 236 236 237 237 238 239 239 240 240
230 230 231 231 230 230 230 230 230 230 230 231 233 234 235 236 237 238 239 239 240 241 241 243 244 245 246 247 248 249 250 251 251 251 251 250 249 247 246 244 242 240 239 237 237 236 237 237 238 239 240 240 241 240 240 238 237 235 234 234 234 235 235 236 237 237 238 239 240
230 230 230 230 229 230 229 229 230 230 231 232 234 235 235 236 237 238 239 240 240 241 242 243 244 245 246 247 248 249 249 250 251 251 250 249 248 246 245 243 242 240 239 237 237 236 236 236 237 238 239 240 240 240 239 238 236 234 233 232 233 233 234 234 235 236 236 237 239
231 231 230 230 229 229 228 228 229 230 231 232 233 234 235 236 237 238 239 239 240 240 241 242 243 244 245 246 247 248 249 249 250 249 249 248 247 245 244 242 241 240 239 238 237 236 236 236 237 237 238 239 240 239 238 237 235 233 232 231 231 232 233 233 233 234 235 236 238
233 232 232 231 230 229 228 227 228 229 230 231 233 234 235 236 237 237 238 238 239 240 241 242 243 244 245 246 247 247 248 248 249 248 248 246 245 243 242 241 240 239 239 238 238 237 236 236 237 237 238 239 240 239 238 236 234 232 231 231 231 232 232 232 232 233 234 235 237
233 232 232 231 230 228 227 227 228 229 230 231 233 234 235 236 237 237 237 238 239 240 240 241 242 243 244 245 246 247 247 248 248 247 246 244 243 241 240 239 239 238 238 238 238 237 237 237 237 238 239 240 240 239 238 235 233 232 231 231 231 231 232 232 232 232 233 235 236
232 232 232 231 230 229 227 227 228 229 230 231 233 234 235 236 236 237 237 238 239 240 240 240 241 242 243 244 245 246 246 246 246 245 244 242 241 239 238 238 238 238 238 238 238 238 238 238 238 239 240 240 241 240 238 236 234 232 231 231 231 232 232 232 232 232 233 235 236
231 231 232 231 230 229 228 228 228 229 230 231 233 234 235 236 236 236 237 238 239 239 239 240 241 242 243 243 244 245 245 245 245 244 242 240 239 238 238 237 237 238 238 238 239 239 239 239 239 240 240 241 241 240 239 237 235 233 232 232 232 232 232 232 232 233 234 235 237
231 231 231 231 230 229 229 229 229 230 230 232 233 234 235 236 236 236 237 237 238 239 239 240 241 241 242 243 243 243 244 244 243 242 240 238 238 237 237 237 238 238 239 239 239 240 239 239 240 240 241 241 241 241 239 238 236 234 233 233 233 233 233 233 233 233 234 235 237
231 230 231 230 230 230 230 230 230 230 231 232 233 234 235 236 236 236 237 237 238 239 239 240 241 241 242 242 242 242 242 242 241 239 238 237 237 237 237 238 238 239 240 240 240 240 240 240 240 241 241 242 242 241 240 238 237 235 235 234 234 234 234 234 234 235 235 237 238
230 230 230 231 231 231 232 232 232 232 232 233 233 234 235 236 236 237 237 238 239 239 240 241 241 242 243 243 242 242 241 240 238 237 236 236 236 237 237 238 239 239 240 241 241 241 241 241 241 241 242 242 242 242 241 239 238 237 236 236 236 236 236 236 236 236 237 238 239
231 231 231 231 232 233 234 234 234 234 234 234 234 235 235 236 237 238 238 239 240 241 241 242 242 243 243 244 243 242 240 239 237 236 235 236 236 237 238 238 239 239 240 241 241 242 242 242 242 242 242 243 242 242 241 240 239 238 238 237 237 238 238 238 238 238 239 240 241
232 231 232 233 234 235 236 236 236 236 236 236 236 236 236 237 238 238 239 240 241 242 242 243 243 244 244 244 243 242 239 237 236 235 235 236 236 237 237 238 238 239 239 240 241 241 242 242 242 243 243 243 243 242 241 240 240 239 239 239 239 239 239 240 240 241 241 241 242
233 233 234 235 236 237 238 239 239 238 237 237 237 237 237 238 238 239 240 241 242 242 243 244 244 244 244 244 243 241 239 237 236 235 235 235 236 236 237 237 238 238 239 239 240 240 241 241 242 242 243 243 243 243 242 241 240 240 240 240 240 241 241 242 242 243 243 243 244
235 235 236 237 238 239 240 240 240 239 239 238 238 238 238 239 239 240 241 242 242 243 243 244 244 245 244 244 242 241 239 237 236 235 235 235 236 236 236 237 237 238 238 238 238 239 239 240 240 241 242 242 243 243 242 242 241 241 241 241 242 242 243 243 244 244 244 245 245
236 236 237 238 239 240 241 241 240 240 240 239 240 240 240 240 241 241 242 242 242 243 244 244 245 245 245 244 243 242 240 239 237 236 236 236 236 236 237 237 237 237 237 237 237 238 238 238 239 239 240 240 241 241 242 241 241 241 241 242 243 243 244 245 245 246 246 246 246
236 236 237 238 238 239 240 241 241 240 240 241 241 241 241 241 242 242 242 242 242 243 244 244 245 245 245 244 244 243 242 240 239 238 237 237 237 237 237 237 237 237 236 237 237 237 237 237 237 238 238 238 239 240 240 241 241 241 241 242 243 244 245 246 246 247 247 247 248
236 236 237 237 238 239 240 240 241 241 242 243 243 243 243 243 243 243 242 242 243 244 244 244 245 245 245 245 244 244 242 241 240 239 238 238 238 238 237 237 237 237 236 236 237 237 237 237 237 237 237 238 238 238 239 239 240 240 241 242 243 244 245 246 247 247 248 248 248
237 237 237 237 238 239 240 241 242 243 244 245 245 245 245 245 245 244 244 244 244 245 245 245 245 245 245 245 244 244 243 241 240 239 239 239 239 238 238 238 237 237 237 237 237 237 237 238 238 238 238 238 238 238 238 238 239 239 240 241 242 243 244 245 246 247 248 248 249
239 238 238 238 238 239 240 242 243 244 245 246 246 246 247 247 247 247 246 246 246 246 246 245 245 245 245 245 244 243 243 242 241 240 240 240 239 239 239 239 238 238 238 238 237 237 238 238 238 238 238 238 238 238 238 238 238 239 239 240 241 242 243 244 245 246 247 248 248
240 240 239 239 239 239 240 242 243 244 245 246 247 247 248 248 248 247 248 248 248 247 246 246 246 246 245 244 244 243 243 242 242 241 241 241 240 240 240 240 240 240 239 239 238 238 238 238 238 238 238 238 238 238 238 238 239 239 239 240 240 241 242 244 245 245 246 246 247
240 240 240 240 240 240 240 241 242 243 245 246 246 247 247 247 246 247 247 247 247 246 246 246 246 245 245 244 244 244 243 243 243 242 242 241 241 241 241 241 241 241 241 240 239 239 238 238 237 237 238 238 238 238 238 238 239 239 239 240 240 241 242 243 243 244 245 245 245
241 241 241 241 241 241 241 241 242 243 244 245 245 245 245 245 245 245 245 245 245 245 245 246 245 245 244 245 245 245 244 244 243 243 242 242 242 241 241 241 241 241 241 241 240 239 238 238 237 237 237 237 238 238 238 238 238 239 239 240 240 241 242 243 243 243 244 244 244
244 243 242 242 242 242 241 242 242 243 243 244 243 243 243 243 243 244 244 244 244 244 245 244 244 244 245 246 246 245 245 244 244 243 243 243 242 242 242 242 242 242 242 242 241 240 239 238 237 237 237 237 237 237 237 238 238 239 239 240 241 241 242 243 243 244 244 244 244
248 246 244 244 243 243 243 243 243 243 243 243 243 243 243 243 243 244 243 243 243 242 242 241 242 243 244 244 244 244 244 244 244 244 244 244 244 243 243 243 243 243 243 243 242 241 240 239 238 237 237 237 237 237 237 237 238 239 239 240 241 242 243 243 244 244 244 244 244
251 249 247 246 245 245 245 244 243 243 243 243 243 243 243 243 243 243 243 242 241 240 240 240 240 241 241 242 242 242 243 243 243 244 244 244 244 244 243 243 243 244 244 244 243 242 241 240 238 238 237 237 237 236 236 237 237 238 239 240 241 242 243 244 244 245 245 244 244
253 251 249 247 247 246 246 246 245 244 243 243 243 243 243 243 243 242 241 240 239 239 239 239 240 240 241 241 241 241 241 241 242 242 243 243 243 243 243 243 244 244 244 244 243 242 241 240 239 238 237 237 236 236 236 236 237 237 239 240 241 242 243 244 244 244 244 244 244
251 250 249 248 248 247 247 246 246 245 245 244 244 244 244 243 243 242 241 240 238 238 238 238 239 239 239 239 239 240 240 240 240 240 241 241 241 241 241 242 243 244 244 243 242 241 240 239 238 237 237 236 236 235 235 235 236 237 238 239 240 241 242 242 243 243 242 242 242
252 252 251 251 249 248 247 247 247 247 246 246 246 246 245 244 243 242 241 239 238 236 236 236 236 236 236 236 237 237 237 238 238 238 239 239 239 239 240 240 241 242 242 241 240 239 239 238 237 237 236 236 235 235 234 235 235 236 238 239 240 241 241 241 241 240 240 240 241
260 257 256 255 253 250 249 248 248 248 248 248 248 247 246 246 244 243 241 239 237 236 235 235 234 234 234 234 234 234 235 236 236 236 236 237 237 237 237 238 239 240 240 239 238 237 237 237 236 236 236 235 234 234 233 233 234 235 237 238 238 239 239 238 238 238 238 238 239
268 264 261 258 255 253 251 250 249 249 248 248 248 248 247 246 245 243 242 240 238 237 236 235 234 234 234 233 233 233 233 233 233 233 234 235 235 235 236 236 237 238 238 237 237 236 236 236 236 236 235 234 234 233 232 232 233 234 235 236 236 236 235 235 234 235 235 236 237
274 270 266 262 258 255 252 250 249 248 247 247 247 246 246 245 244 242 241 240 239 237 236 236 235 235 234 234 233 232 232 232 232 232 233 233 234 235 236 236 236 237 238 237 237 237 237 236 235 235 235 234 233 232 232 232 232 233 233 233 232 232 231 231 230 231 232 233 235
279 274 271 266 261 256 252 249 247 246 245 244 244 244 243 243 241 240 239 238 237 237 236 235 235 235 235 234 233 233 233 233 233 233 233 234 235 236 237 237 238 239 240 240 239 238 236 235 233 233 232 232 231 231 231 231 231 230 230 229 229 228 227 227 227 228 229 230 231
283 277 272 267 260 254 248 245 243 243 243 242 241 241 241 240 239 238 237 236 235 234 234 234 234 234 234 234 234 234 234 234 235 235 235 236 237 238 239 240 240 241 241 241 239 237 234 232 231 230 230 230 229 229 229 228 228 227 227 227 226 225 224 223 224 225 226 227 227